Regional Weather Roundup
Issued by NWS

Home | Current Version | Previous Version | Graphics & Text | Print | Product List | Glossary Off
Versions: 1 2 3 4 5 6 7 8 9 10 11 12 13 14 15 16 17 18 19 20 21 22 23 24 25 26 27 28 29 30 31 32 33 34 35 36 37 38 39 40 41 42 43 44 45 46 47 48 49 50

000
ASUS43 KMKX 051200
RWRWI

WISCONSIN REGIONAL WEATHER ROUNDUP
NATIONAL WEATHER SERVICE MILWAUKEE/SULLIVAN WI
600 AM CST MON DEC 05 2016

NOTE: "FAIR" INDICATES FEW OR NO CLOUDS BELOW 12,000 FEET WITH NO
SIGNIFICANT WEATHER AND/OR OBSTRUCTIONS TO VISIBILITY.

WIZ001-002-006>008-014>016-023>028-051300-
NORTHWEST WISCONSIN

CITY           SKY/WX    TMP DP  RH WIND       PRES   REMARKS
SUPERIOR ARPT  CLOUDY    33  29  87 W6        29.76S WCI  27
ASHLAND        CLOUDY    34  28  79 SW7       29.77R WCI  28
6HR MIN TEMP:  33; 6HR MAX TEMP:  34;

HAYWARD        CLOUDY    32  28  85 SW7       29.78R WCI  26
6HR MIN TEMP:  32; 6HR MAX TEMP:  34;

SIREN          CLEAR     29  28  96 S3        29.79R
CUMBERLAND     FOG       23  21  93 S3        29.79S VSB 1/4
RICE LAKE      FOG       24  23  96 CALM      29.82R VSB 1/4
CHETEK           N/A     25  24  98 E7        29.81S FOG     WCI  17
LADYSMITH      PTCLDY    29  27  93 S5        29.83R WCI  24
EAU CLAIRE     NOT AVBL
MENOMONIE      FOG       23  22  96 E3        29.83S VSB 3/4
NEW RICHMOND   CLEAR     22  22  97 CALM      29.80S FOG
OSCEOLA        CLEAR     26  26 100 S6        29.83R FOG     WCI  19
$$

WIZ003>005-009-010-017-018-051300-
NORTH CENTRAL WISCONSIN

CITY           SKY/WX    TMP DP  RH WIND       PRES   REMARKS
MANITOWISH WTR CLOUDY    31  31 100 W7        29.75R WCI  24
ARBOR VITAE    CLOUDY    33  30  90 W10       29.76R WCI  25
WOODRUFF       CLOUDY    33  30  90 W10       29.76R WCI  25
RHINELANDER    CLOUDY    32  28  85 W12G21    29.78R WCI  23
6HR MIN TEMP:  32; 6HR MAX TEMP:  33; 6HR PCP: TRACE;

EAGLE RIVER    CLOUDY    32  31  95 W12G18    29.74R WCI  23
LAND O LAKES   MIX PCPN  32  31  96 W7        29.75R WCI  26
PHILLIPS       CLOUDY    31  29  93 SW7       29.77S WCI  24
TOMAHAWK       CLOUDY    32  28  84 W5        29.80R WCI  27
MEDFORD        CLOUDY    29  28  96 SW6       29.81R FOG     WCI  23
MERRILL        CLOUDY    32  30  92 SW6       29.82R WCI  26
$$

WIZ029-030-035-036-043>047-051300-
CENTRAL WISCONSIN

CITY           SKY/WX    TMP DP  RH WIND       PRES   REMARKS
WAUSAU         PTCLDY    31  28  89 SW10      29.83R WCI  22
6HR MIN TEMP:  31; 6HR MAX TEMP:  34;

MOSINEE        CLOUDY    32  30  93 SW6       29.84S WCI  26
MARSHFIELD     CLOUDY    32  30  92 W9        29.83S WCI  24
6HR MIN TEMP:  32; 6HR MAX TEMP:  33;

STEVENS POINT  CLOUDY    31  31  99 SW5       29.86S WCI  26
WAUPACA        PTCLDY    33  31  90 CALM      29.87S
WAUTOMA        CLOUDY    33  32  96 SW9       29.90R WCI  25
6HR MIN TEMP:  31; 6HR MAX TEMP:  33;

WISC RAPIDS    CLOUDY    33  33 100 SW10      29.89R WCI  25
6HR MIN TEMP:  31; 6HR MAX TEMP:  34;

CAMP DOUGLAS   NOT AVBL
$$

WIZ011>013-019>022-031-037>040-048>050-051300-
NORTHEAST WISCONSIN

CITY           SKY/WX    TMP DP  RH WIND       PRES   REMARKS
ANTIGO         CLOUDY    32  28  87 W13       29.81R WCI  22
SHAWANO        CLOUDY    35  32  87 SW6       29.86R WCI  30
OCONTO         MOCLDY    33  31  94 SW5       29.85R WCI  28
STURGEON BAY   CLOUDY    35  32  88 SW12G17   29.86R WCI  27
6HR MIN TEMP:  31; 6HR MAX TEMP:  35;

GREEN BAY      CLOUDY    36  33  89 SW9       29.87S WCI  29
6HR MIN TEMP:  34; 6HR MAX TEMP:  36;

MANITOWOC      NOT AVBL
APPLETON       CLOUDY    32  32 100 SW8       29.86R WCI  25
CLINTONVILLE   CLOUDY    34  32  93 SW6       29.86S WCI  29
OSHKOSH        CLOUDY    34  30  85 SW9       29.90R WCI  27
6HR MIN TEMP:  32; 6HR MAX TEMP:  34;

$$

WIZ032>034-041-042-053>061-051300-
SOUTHWEST WISCONSIN

CITY           SKY/WX    TMP DP  RH WIND       PRES   REMARKS
LA CROSSE      CLOUDY    35  32  88 SE8       29.87F WCI  29
6HR MIN TEMP:  35; 6HR MAX TEMP:  37;

SPARTA         CLOUDY    33  32  96 SW3       29.89R
VIROQUA        CLOUDY    32  32 100 S8        29.88S WCI  25
BOSCOBEL       CLOUDY    35  33  92 S3        29.92F FOG
6HR MIN TEMP:  34; 6HR MAX TEMP:  36;

PRAIRIE DU CHI CLOUDY    33  31  92 CALM      29.92S FOG
PLATTEVILLE    CLOUDY    33  33 100 SW8       29.94R WCI  26
$$

WIZ056-057-062-063-064-067-068-051300-
SOUTH CENTRAL WISCONSIN

CITY           SKY/WX    TMP DP  RH WIND       PRES   REMARKS
REEDSBURG      CLOUDY    33  32  99 W7        29.91S WCI  26
BARABOO/DELLS  CLOUDY    32  31  96 SW8       29.90S WCI  25
LONE ROCK      CLOUDY    34  32  92 SW6       29.94R FOG     WCI  29
MINERAL POINT  FOG       34  34 100 SW9       29.92S VSB 1/2 WCI  26
MADISON        CLOUDY    33  32  96 SW7       29.93S WCI  27
6HR MIN TEMP:  33; 6HR MAX TEMP:  34;

MIDDLETON      CLOUDY    34  34 100 SW5       29.93S WCI  30
WATERTOWN      CLOUDY    32  32 100 SW6       29.94S WCI  27
MONROE         FOG       32  32 100 SW9       29.93F VSB 1/2 WCI  24
JANESVILLE     CLOUDY    34  34 100 SW6       29.95F FOG     WCI  29
$$

WIZ051-052-058>065-066-070>072-051300-
SOUTHEAST WISCONSIN

CITY           SKY/WX    TMP DP  RH WIND       PRES   REMARKS
MILWAUKEE      CLOUDY    34  30  85 SW9       29.96S WCI  27
6HR MIN TEMP:  34; 6HR MAX TEMP:  35; 6HR PCP: TRACE;

WAUKESHA       CLOUDY    30  28  93 SW7       29.96R WCI  23
MILWAUKEE/TIMM CLOUDY    32  30  93 W7        29.96R WCI  26
RACINE         CLOUDY    33  30  88 W9        29.98S WCI  25
6HR MIN TEMP:  33; 6HR MAX TEMP:  34;

BURLINGTON     CLOUDY    32  31  96 CALM      29.97R
KENOSHA        CLOUDY    33  31  92 W9        29.97S WCI  25
6HR MIN TEMP:  32; 6HR MAX TEMP:  33;

FOND DU LAC    CLOUDY    34  29  82 SW7       29.92R WCI  28
6HR MIN TEMP:  32; 6HR MAX TEMP:  35;

SHEBOYGAN      CLOUDY    34  29  82 W14       29.91R WCI  25
6HR MIN TEMP:  31; 6HR MAX TEMP:  34;

WEST BEND      CLOUDY    32  32 100 W8        29.93R WCI  25
JUNEAU         CLOUDY    32  31  95 SW8       29.94R WCI  25
$$

LSZ147-162-051300-
LAKE SUPERIOR

STATION/POSITION TIME  TEMP    WIND        PRES    WAVE
                       AIR SEA DIR/SP/G            HT/PER
                 (UTC) (F)     (DEG/KT/KT) (MB)    (FT/S)
DEVILS ISLAND    1100   36     260/ 20/ 23 1007.2R
PORT WING        1140   36     260/  9/ 16 1007.8S
SAXON HARBOR     1140   36     240/  4/  9 1008.1R
$$

LMZ867-665-643>646-051300-
LAKE MICHIGAN

STATION/POSITION TIME  TEMP    WIND        PRES    WAVE
                       AIR SEA DIR/SP/G            HT/PER
                 (UTC) (F)     (DEG/KT/KT) (MB)    (FT/S)
CHAMBERS ISLAND  1140   36     210/  7/ 21 1009.5R
NORTHPORT PIER   1140   36     240/  6/ 15 1009.5R
SISTER BAY       1138   38     260/ 21/ 24   N/A
ALGOMA LAKESHORE 1036          270/ 10/ 13   N/A
KEWAUNEE LAKESHO 1130   35     240/  8/ 15 1011.1R
SHEBOYGAN LAKESH 1100   35     240/ 11/ 15 1013.1R
PORT WASHINGTON  1130   35     260/  6/  8 1014.9R
MILWAUKEE LAKESH 1130   34     250/ 10/ 12   N/A
KENOSHA   LAKESH 1100   34     260/  9/ 13 1015.2
$$

TC  - TEMPERATURE IN CELSIUS
VSB - VISIBILITY IN STATUTE MILES
WCI - WIND CHILL INDEX
HX  - HEAT INDEX




USA.gov is the U.S. government's official web portal to all federal, state and local government web resources and services.